Midland, MI

3:33 PM EDT on July 26, 2017 (GMT -0400)
Barstow

Weather History for KIKW - February, 2014

Change the Weather History Date:

Wednesday, February 19, 2014

  Actual Average (KMBS) Record (KMBS)
Temperature  
Mean Temperature 33 °F -  
Max Temperature 47 °F 31 °F 59 °F (2016)
Min Temperature 19 °F 17 °F -9 °F (2015)
Degree Days  
Heating Degree Days 32    
Moisture  
Dew Point 25 °F    
Average Humidity 68    
Maximum Humidity 98    
Minimum Humidity 34    
Precipitation  
Precipitation 0.00 in - - ()
Sea Level Pressure  
Sea Level Pressure 29.76 in    
Wind  
Wind Speed 5 mph (WSW)    
Max Wind Speed 17 mph    
Max Gust Speed 26 mph    
Visibility 9 miles    
Events Fog , Snow    
Averages and records for this station are not official NWS values.
T = Trace of Precipitation, MM = Missing Value Source: NWS Daily Summary

Daily Weather History Graph

Daily Weather History Graph

Search for Another Location

Airport or City:

Trip Planner

Search our weather history database for the weather conditions in past years. The results will help you decide how hot, cold, wet, or windy it might be!

Date:

Astronomy

Feb. 19, 2014 Rise Set
Actual Time 7:29 AM EST 6:12 PM EST
Civil Twilight 7:00 AM EST 6:41 PM EST
Nautical Twilight 6:27 AM EST 7:15 PM EST
Astronomical Twilight 5:53 AM EST 7:48 PM EST
Moon 11:15 PM EST (2/19) 9:25 AM EST (2/19)
Length of Visible Light 11h 41m
Length of Day
10h 43m
Waning Gibbous, 80% of the Moon is Illuminated
Feb 19
Waning Gibbous
Feb 22
Last Quarter
Mar 1
New
Mar 8
First Quarter
Mar 16
Full

Hourly Weather History & Observations

Time (EST) Temp. Windchill Dew Point Humidity Pressure Visibility Wind Dir Wind Speed Gust Speed Precip Events Conditions
12:13 AM 37.8 °F 33.3 °F 27.9 °F 67% 29.59 in 10.0 mi SSW 5.8 mph - N/A   Clear
12:34 AM 36.3 °F 31.6 °F 27.3 °F 70% 29.58 in 10.0 mi SSW 5.8 mph - N/A   Clear
12:54 AM 34.9 °F 30.8 °F 26.6 °F 72% 29.58 in 10.0 mi SSW 4.6 mph - N/A   Clear
1:13 AM 34.7 °F 31.8 °F 26.6 °F 72% 29.58 in 10.0 mi SSW 3.5 mph - N/A   Clear
1:34 AM 34.9 °F 32.0 °F 27.3 °F 74% 29.57 in 10.0 mi SW 3.5 mph - N/A   Clear
1:53 AM 32.9 °F - 26.8 °F 78% 29.58 in 10.0 mi Calm Calm - N/A   Clear
2:14 AM 31.3 °F 27.9 °F 25.5 °F 79% 29.57 in 10.0 mi SW 3.5 mph - N/A   Clear
2:34 AM 29.1 °F - 25.2 °F 85% 29.57 in 10.0 mi Calm Calm - N/A   Clear
2:54 AM 28.9 °F - 25.0 °F 85% 29.57 in 10.0 mi Calm Calm - N/A   Clear
3:14 AM 24.4 °F - 23.4 °F 96% 29.57 in 10.0 mi Calm Calm - N/A   Clear
3:34 AM 19.6 °F - 18.5 °F 96% 29.57 in 5.0 mi Calm Calm - N/A   Clear
3:54 AM 21.7 °F - 20.8 °F 96% 29.57 in 7.0 mi Calm Calm - N/A   Clear
4:14 AM 21.9 °F - 21.2 °F 97% 29.58 in 4.0 mi Calm Calm - N/A   Clear
4:34 AM 23.5 °F - 23.0 °F 98% 29.58 in 2.0 mi Calm Calm - N/A   Clear
4:53 AM 19.2 °F - 18.3 °F 96% 29.58 in 0.5 mi Calm Calm - N/A Fog Light Freezing Fog
5:14 AM 19.0 °F 13.9 °F 18.1 °F 96% 29.58 in 4.0 mi West 3.5 mph - N/A   Clear
5:34 AM 19.8 °F - 19.0 °F 97% 29.59 in 10.0 mi Calm Calm - N/A   Clear
5:53 AM 24.4 °F - 23.9 °F 98% 29.58 in 10.0 mi Calm Calm - N/A   Scattered Clouds
6:14 AM 23.9 °F - 23.0 °F 96% 29.59 in 10.0 mi Calm Calm - N/A   Mostly Cloudy
6:34 AM 27.3 °F - 26.8 °F 98% 29.59 in 10.0 mi Calm Calm - N/A   Mostly Cloudy
6:53 AM 26.4 °F - 25.7 °F 97% 29.60 in 10.0 mi Calm Calm - N/A   Mostly Cloudy
7:14 AM 26.2 °F - 25.5 °F 97% 29.60 in 10.0 mi Calm Calm - N/A   Mostly Cloudy
7:34 AM 28.4 °F 24.6 °F 27.9 °F 98% 29.61 in 10.0 mi WNW 3.5 mph - N/A   Mostly Cloudy
7:53 AM 29.3 °F 25.6 °F 28.4 °F 96% 29.63 in 10.0 mi WNW 3.5 mph - N/A   Overcast
8:14 AM 30.2 °F 24.3 °F 28.4 °F 93% 29.66 in 10.0 mi West 5.8 mph - N/A   Overcast
8:35 AM 31.6 °F 26.0 °F 28.4 °F 88% 29.69 in 7.0 mi West 5.8 mph - N/A Snow Light Snow
8:54 AM 32.0 °F 26.4 °F 28.4 °F 87% 29.70 in 7.0 mi West 5.8 mph - N/A   Mostly Cloudy
9:13 AM 32.4 °F 26.9 °F 27.3 °F 82% 29.70 in 10.0 mi West 5.8 mph - N/A   Scattered Clouds
9:34 AM 33.4 °F 28.1 °F 27.5 °F 79% 29.71 in 10.0 mi West 5.8 mph - N/A   Clear
9:54 AM 34.5 °F 27.9 °F 28.0 °F 77% 29.72 in 10.0 mi West 8.1 mph - N/A   Clear
10:14 AM 34.9 °F 27.7 °F 28.0 °F 76% 29.72 in 10.0 mi West 9.2 mph - N/A   Clear
10:34 AM 35.8 °F 27.8 °F 28.4 °F 75% 29.73 in 10.0 mi West 11.5 mph - N/A   Clear
10:54 AM 36.1 °F 29.3 °F 28.2 °F 73% 29.75 in 10.0 mi WNW 9.2 mph - N/A   Clear
11:14 AM 38.8 °F 34.6 °F 28.8 °F 67% 29.75 in 10.0 mi West 5.8 mph - N/A   Clear
11:34 AM 40.3 °F 35.5 °F 28.9 °F 64% 29.75 in 10.0 mi West 6.9 mph - N/A   Clear
11:54 AM 41.7 °F 36.7 °F 28.9 °F 61% 29.75 in 10.0 mi West 8.1 mph - N/A   Clear
12:14 PM 42.1 °F 36.1 °F 28.8 °F 59% 29.76 in 10.0 mi West 10.4 mph - N/A   Clear
12:34 PM 42.6 °F 35.9 °F 28.2 °F 57% 29.77 in 10.0 mi West 12.7 mph 16.1 mph N/A   Clear
12:53 PM 43.0 °F 36.8 °F 28.4 °F 56% 29.77 in 10.0 mi WNW 11.5 mph 19.6 mph N/A   Clear
1:14 PM 43.9 °F 37.5 °F 27.3 °F 52% 29.77 in 10.0 mi West 12.7 mph 17.3 mph N/A   Clear
1:34 PM 44.6 °F 38.1 °F 26.6 °F 49% 29.78 in 10.0 mi West 13.8 mph 17.3 mph N/A   Clear
1:53 PM 44.6 °F 38.8 °F 26.6 °F 49% 29.78 in 10.0 mi WNW 11.5 mph 17.3 mph N/A   Clear
2:14 PM 45.3 °F 39.0 °F 25.9 °F 47% 29.79 in 10.0 mi West 13.8 mph - N/A   Clear
2:34 PM 45.5 °F 38.9 °F 25.7 °F 46% 29.80 in 10.0 mi West 15.0 mph 18.4 mph N/A   Clear
2:53 PM 45.7 °F 38.6 °F 24.1 °F 43% 29.81 in 10.0 mi West 17.3 mph 23.0 mph N/A   Clear
3:14 PM 45.9 °F 40.4 °F 24.3 °F 43% 29.81 in 10.0 mi West 11.5 mph 26.5 mph N/A   Clear
3:33 PM 46.2 °F 39.3 °F 23.0 °F 40% 29.82 in 10.0 mi West 17.3 mph 24.2 mph N/A   Clear
3:54 PM 47.1 °F - 23.2 °F 39% 29.83 in 10.0 mi West 12.7 mph 19.6 mph N/A   Clear
4:14 PM 46.6 °F - 21.7 °F 37% 29.84 in 10.0 mi West 12.7 mph 23.0 mph N/A   Clear
4:33 PM 47.1 °F - 21.6 °F 36% 29.84 in 10.0 mi West 12.7 mph 21.9 mph N/A   Clear
4:54 PM 46.9 °F - 19.8 °F 34% 29.86 in 10.0 mi West 13.8 mph 20.7 mph N/A   Clear
5:14 PM 46.4 °F 40.1 °F 21.7 °F 38% 29.87 in 10.0 mi WSW 15.0 mph 20.7 mph N/A   Clear
5:34 PM 46.0 °F 41.0 °F 19.4 °F 35% 29.88 in 10.0 mi West 10.4 mph 19.6 mph N/A   Clear
5:54 PM 44.8 °F 41.6 °F 18.9 °F 36% 29.89 in 10.0 mi West 5.8 mph - N/A   Clear
6:13 PM 43.9 °F 40.5 °F 23.0 °F 44% 29.91 in 10.0 mi WSW 5.8 mph - N/A   Clear
6:34 PM 42.8 °F 40.1 °F 22.8 °F 45% 29.92 in 10.0 mi WSW 4.6 mph - N/A   Clear
6:54 PM 41.9 °F 39.0 °F 21.6 °F 44% 29.93 in 10.0 mi WSW 4.6 mph - N/A   Clear
7:13 PM 40.3 °F 36.3 °F 21.9 °F 48% 29.95 in 10.0 mi WSW 5.8 mph - N/A   Clear
7:34 PM 39.7 °F 34.9 °F 23.2 °F 52% 29.95 in 10.0 mi SW 6.9 mph - N/A   Clear
7:53 PM 39.2 °F 33.6 °F 23.9 °F 54% 29.95 in 10.0 mi WSW 8.1 mph - N/A   Clear
8:14 PM 38.5 °F 32.7 °F 24.1 °F 56% 29.96 in 10.0 mi SW 8.1 mph - N/A   Clear
8:34 PM 37.0 °F 31.6 °F 23.7 °F 59% 29.97 in 10.0 mi SW 6.9 mph - N/A   Clear
8:53 PM 36.7 °F 30.5 °F 23.2 °F 58% 29.97 in 10.0 mi SW 8.1 mph - N/A   Clear
9:14 PM 35.4 °F 29.7 °F 22.8 °F 60% 29.97 in 10.0 mi SW 6.9 mph - N/A   Clear
9:34 PM 34.9 °F 32.0 °F 22.6 °F 61% 29.97 in 10.0 mi SW 3.5 mph - N/A   Clear
9:53 PM 34.0 °F 31.0 °F 22.6 °F 63% 29.97 in 10.0 mi SSW 3.5 mph - N/A   Clear
10:14 PM 33.1 °F 28.7 °F 22.3 °F 65% 29.97 in 10.0 mi SW 4.6 mph - N/A   Clear
10:33 PM 32.4 °F 29.1 °F 22.1 °F 66% 29.97 in 10.0 mi SW 3.5 mph - N/A   Clear
10:54 PM 32.9 °F 28.5 °F 23.0 °F 67% 29.97 in 10.0 mi SSW 4.6 mph - N/A   Clear
11:14 PM 32.4 °F 29.1 °F 23.0 °F 68% 29.97 in 10.0 mi South 3.5 mph - N/A   Clear
11:33 PM 31.5 °F - 22.3 °F 69% 29.97 in 10.0 mi Calm Calm - N/A   Clear
11:54 PM 31.1 °F - 23.0 °F 72% 29.97 in 10.0 mi Calm Calm - N/A   Clear